N7266E KMFV-KOXB

Flight info

Callsign N7266E
Flight time N/A
Altitude 1500
Route FORMATION WITH TPC141
Aircraft DA62/L-VGDW/C

Departure

Time 2026-04-15 00:51
Airport Accomack County Airport (KMFV)

Arrival

Time N/A
Airport Ocean City Municipal Airport (KOXB)
Time Latitude Longitude Altitude Speed Heading
2026-04-15 00:48 37.65294 -75.75781 54 ft 0 kts 203°
2026-04-15 00:50 37.65254 -75.75800 55 ft 27 kts 199°
2026-04-15 00:50 37.64936 -75.75968 67 ft 66 kts 204°
2026-04-15 00:51 37.64511 -75.76259 242 ft 74 kts 212°
2026-04-15 00:51 37.64071 -75.76737 296 ft 99 kts 224°
2026-04-15 00:51 37.63601 -75.77351 695 ft 88 kts 236°
2026-04-15 00:51 37.63266 -75.77994 964 ft 83 kts 238°
2026-04-15 00:52 37.63003 -75.78505 1315 ft 74 kts 235°
2026-04-15 00:52 37.62691 -75.79087 1453 ft 86 kts 253°
2026-04-15 00:52 37.62514 -75.79752 1792 ft 78 kts 244°
2026-04-15 00:52 37.62196 -75.80339 2030 ft 84 kts 239°
2026-04-15 00:53 37.62524 -75.80722 2187 ft 129 kts 20°
2026-04-15 00:53 37.63332 -75.80100 2417 ft 137 kts 31°
2026-04-15 00:53 37.64061 -75.79389 2707 ft 142 kts 47°
2026-04-15 00:53 37.64288 -75.78093 2460 ft 173 kts 84°
2026-04-15 00:54 37.64903 -75.76980 2893 ft 156 kts 57°
2026-04-15 00:54 37.65688 -75.76183 3258 ft 133 kts 19°
2026-04-15 00:54 37.66509 -75.75736 3654 ft 124 kts 24°
2026-04-15 00:54 37.67200 -75.75114 4005 ft 119 kts 30°
2026-04-15 00:55 37.67856 -75.74499 4324 ft 116 kts 30°
2026-04-15 00:55 37.68490 -75.73890 4615 ft 113 kts 30°
2026-04-15 00:55 37.69138 -75.73254 4779 ft 128 kts 32°
2026-04-15 00:55 37.69825 -75.72460 5033 ft 132 kts 42°
2026-04-15 00:56 37.70471 -75.71782 5547 ft 99 kts 37°
2026-04-15 00:56 37.71039 -75.71122 5701 ft 119 kts 32°
2026-04-15 00:56 37.71709 -75.70519 5915 ft 119 kts 20°
2026-04-15 00:56 37.72523 -75.70189 6062 ft 127 kts
2026-04-15 00:57 37.73389 -75.69989 6260 ft 134 kts
2026-04-15 00:57 37.74325 -75.69760 6494 ft 137 kts
2026-04-15 00:57 37.75272 -75.69472 6658 ft 145 kts
2026-04-15 00:57 37.76336 -75.69179 6545 ft 167 kts
2026-04-15 00:58 37.77521 -75.68879 6501 ft 178 kts